• In Portugal
  • List of Countries
  • For 7 days
  • Water Temperature
  • Satellite Maps
  • Weather Map
  • Weather Widgets
  • user-avatar
    Login

    Hourly Weather Nakhchivan

    Today, 23 September, Sunday

    Time Temperature Precipitation Wind Pressure Humidity
    00:00 +22°C° 0 mm 1 mps 689 mmHg 61%
    01:00 +22°C° 0 mm 1 mps 689 mmHg 62%
    02:00 +21°C° 0 mm 1 mps 689 mmHg 62%
    03:00 +21°C° 0 mm 1 mps 688 mmHg 63%
    04:00 +20°C° 0 mm 1 mps 688 mmHg 63%
    05:00 +20°C° 0 mm 1 mps 688 mmHg 64%
    06:00 +20°C° 0 mm 1 mps 688 mmHg 65%
    07:00 +21°C° 0 mm 1 mps 689 mmHg 58%
    08:00 +23°C° 0 mm 1 mps 689 mmHg 51%
    09:00 +24°C° 0 mm 1 mps 689 mmHg 44%
    10:00 +25°C° 0 mm 1 mps 689 mmHg 40%
    11:00 +26°C° 0 mm 1 mps 689 mmHg 35%
    12:00 +27°C° 0 mm 1 mps 689 mmHg 31%
    13:00 +28°C° 0 mm 2 mps 689 mmHg 30%
    14:00 +28°C° 0 mm 2 mps 688 mmHg 28%
    15:00 +29°C° 0 mm 2 mps 688 mmHg 26%
    16:00 +28°C° 0.1 mm 2 mps 688 mmHg 28%
    17:00 +27°C° 0.1 mm 2 mps 688 mmHg 30%
    18:00 +26°C° 0.1 mm 1 mps 688 mmHg 31%
    19:00 +25°C° 0.1 mm 1 mps 688 mmHg 35%
    20:00 +25°C° 0.1 mm 1 mps 688 mmHg 38%
    21:00 +24°C° 0.1 mm 1 mps 689 mmHg 41%
    22:00 +23°C° 0 mm 1 mps 689 mmHg 42%
    23:00 +23°C° 0 mm 1 mps 689 mmHg 43%

    Tomorrow, 24 September, Monday

    Time Temperature Precipitation Wind Pressure Humidity
    00:00 +22°C° 0 mm 1 mps 689 mmHg 45%
    01:00 +22°C° 0 mm 1 mps 689 mmHg 45%
    02:00 +21°C° 0 mm 1 mps 689 mmHg 46%
    03:00 +21°C° 0 mm 1 mps 689 mmHg 46%
    04:00 +20°C° 0 mm 1 mps 689 mmHg 48%
    05:00 +20°C° 0 mm 1 mps 689 mmHg 49%
    06:00 +19°C° 0 mm 1 mps 689 mmHg 50%
    07:00 +21°C° 0 mm 1 mps 689 mmHg 46%
    08:00 +22°C° 0 mm 1 mps 690 mmHg 41%
    09:00 +24°C° 0 mm 2 mps 690 mmHg 37%
    10:00 +25°C° 0 mm 2 mps 690 mmHg 34%
    11:00 +26°C° 0 mm 2 mps 690 mmHg 32%
    12:00 +27°C° 0 mm 2 mps 690 mmHg 29%
    13:00 +27°C° 0 mm 2 mps 690 mmHg 28%
    14:00 +28°C° 0 mm 2 mps 690 mmHg 27%
    15:00 +28°C° 0 mm 2 mps 689 mmHg 25%
    16:00 +27°C° 0 mm 2 mps 689 mmHg 27%
    17:00 +27°C° 0 mm 2 mps 689 mmHg 29%
    18:00 +26°C° 0 mm 2 mps 689 mmHg 31%
    19:00 +25°C° 0 mm 2 mps 689 mmHg 35%
    20:00 +24°C° 0 mm 2 mps 690 mmHg 38%
    21:00 +24°C° 0 mm 1 mps 690 mmHg 42%
    22:00 +23°C° 0 mm 1 mps 690 mmHg 45%
    23:00 +22°C° 0 mm 1 mps 690 mmHg 47%

    Day after tomorrow, 25 September, Tuesday

    Time Temperature Precipitation Wind Pressure Humidity
    00:00 +22°C° 0 mm 1 mps 689 mmHg 50%
    01:00 +21°C° 0 mm 1 mps 689 mmHg 51%
    02:00 +21°C° 0 mm 1 mps 689 mmHg 53%
    03:00 +21°C° 0 mm 1 mps 689 mmHg 54%
    04:00 +20°C° 0 mm 1 mps 689 mmHg 55%
    05:00 +20°C° 0 mm 1 mps 688 mmHg 55%
    06:00 +17°C° 0 mm 0 mps 688 mmHg 56%
    07:00 +19°C° 0 mm 0 mps 688 mmHg 49%
    08:00 +21°C° 0 mm 0 mps 689 mmHg 43%
    09:00 +23°C° 0 mm 0 mps 689 mmHg 36%
    10:00 +26°C° 0 mm 1 mps 689 mmHg 33%
    11:00 +28°C° 0 mm 1 mps 688 mmHg 30%
    12:00 +29°C° 0 mm 1 mps 688 mmHg 27%
    13:00 +29°C° 0 mm 2 mps 687 mmHg 26%
    14:00 +30°C° 0 mm 2 mps 687 mmHg 24%
    15:00 +30°C° 0 mm 2 mps 686 mmHg 23%
    16:00 +29°C° 0 mm 2 mps 686 mmHg 25%
    17:00 +28°C° 0 mm 1 mps 686 mmHg 27%
    18:00 +27°C° 0 mm 1 mps 686 mmHg 28%
    19:00 +27°C° 0 mm 1 mps 686 mmHg 31%
    20:00 +26°C° 0 mm 1 mps 686 mmHg 33%
    21:00 +25°C° 0 mm 1 mps 687 mmHg 35%
    22:00 +25°C° 0 mm 1 mps 687 mmHg 36%
    23:00 +24°C° 0 mm 1 mps 686 mmHg 36%

    26 September, Wednesday

    Time Temperature Precipitation Wind Pressure Humidity
    00:00 +24°C° 0 mm 1 mps 686 mmHg 37%
    01:00 +23°C° 0 mm 1 mps 686 mmHg 38%
    02:00 +23°C° 0 mm 1 mps 686 mmHg 39%
    03:00 +22°C° 0 mm 1 mps 686 mmHg 41%
    04:00 +22°C° 0 mm 1 mps 686 mmHg 42%
    05:00 +22°C° 0 mm 1 mps 686 mmHg 43%
    06:00 +21°C° 0 mm 1 mps 686 mmHg 44%
    07:00 +23°C° 0 mm 2 mps 687 mmHg 40%
    08:00 +24°C° 0 mm 2 mps 687 mmHg 35%
    09:00 +26°C° 0 mm 2 mps 687 mmHg 30%
    10:00 +27°C° 0 mm 2 mps 687 mmHg 29%
    11:00 +28°C° 0 mm 2 mps 687 mmHg 27%
    12:00 +29°C° 0 mm 2 mps 687 mmHg 25%
    13:00 +29°C° 0 mm 2 mps 687 mmHg 25%
    14:00 +30°C° 0 mm 3 mps 686 mmHg 24%
    15:00 +30°C° 0 mm 3 mps 686 mmHg 24%
    16:00 +29°C° 0.1 mm 3 mps 686 mmHg 28%
    17:00 +28°C° 0.1 mm 3 mps 686 mmHg 31%
    18:00 +27°C° 0.1 mm 3 mps 686 mmHg 35%
    19:00 +26°C° 0 mm 3 mps 687 mmHg 39%
    20:00 +25°C° 0 mm 3 mps 687 mmHg 42%
    21:00 +24°C° 0 mm 2 mps 688 mmHg 46%
    22:00 +24°C° 0 mm 2 mps 688 mmHg 49%
    23:00 +23°C° 0 mm 2 mps 688 mmHg 51%

    27 September, Thursday

    Time Temperature Precipitation Wind Pressure Humidity
    00:00 +23°C° 0 mm 2 mps 688 mmHg 54%
    01:00 +21°C° 0 mm 2 mps 688 mmHg 56%
    02:00 +21°C° 0 mm 2 mps 689 mmHg 58%
    03:00 +20°C° 0 mm 2 mps 689 mmHg 60%
    04:00 +20°C° 0 mm 2 mps 689 mmHg 61%
    05:00 +21°C° 0 mm 1 mps 689 mmHg 63%
    06:00 +20°C° 0 mm 1 mps 690 mmHg 64%
    07:00 +22°C° 0 mm 1 mps 690 mmHg 59%
    08:00 +23°C° 0 mm 2 mps 691 mmHg 54%
    09:00 +24°C° 0 mm 2 mps 691 mmHg 49%
    10:00 +25°C° 0 mm 2 mps 691 mmHg 45%
    11:00 +26°C° 0 mm 2 mps 691 mmHg 41%
    12:00 +27°C° 0 mm 2 mps 691 mmHg 37%
    13:00 +28°C° 0 mm 3 mps 690 mmHg 35%
    14:00 +29°C° 0 mm 3 mps 690 mmHg 33%
    15:00 +29°C° 0 mm 3 mps 690 mmHg 31%
    16:00 +28°C° 0.2 mm 3 mps 690 mmHg 35%
    17:00 +27°C° 0.2 mm 3 mps 690 mmHg 39%
    18:00 +26°C° 0.2 mm 3 mps 690 mmHg 43%
    19:00 +25°C° 0.2 mm 3 mps 690 mmHg 46%
    20:00 +24°C° 0.2 mm 3 mps 690 mmHg 49%
    21:00 +24°C° 0.2 mm 2 mps 690 mmHg 52%
    22:00 +23°C° 0 mm 2 mps 690 mmHg 53%
    23:00 +23°C° 0 mm 2 mps 690 mmHg 55%

    28 September, Friday

    Time Temperature Precipitation Wind Pressure Humidity
    00:00 +21°C° 0 mm 2 mps 690 mmHg 57%
    01:00 +21°C° 0 mm 2 mps 690 mmHg 58%
    02:00 +20°C° 0 mm 2 mps 690 mmHg 59%
    03:00 +21°C° 0 mm 1 mps 690 mmHg 60%
    04:00 +21°C° 0 mm 1 mps 690 mmHg 61%
    05:00 +20°C° 0 mm 1 mps 690 mmHg 62%
    06:00 +20°C° 0 mm 1 mps 690 mmHg 63%
    07:00 +21°C° 0 mm 1 mps 690 mmHg 58%
    08:00 +23°C° 0 mm 1 mps 690 mmHg 52%
    09:00 +24°C° 0 mm 1 mps 690 mmHg 47%
    10:00 +26°C° 0 mm 1 mps 690 mmHg 43%
    11:00 +27°C° 0 mm 1 mps 690 mmHg 39%
    12:00 +28°C° 0 mm 2 mps 690 mmHg 35%
    13:00 +29°C° 0 mm 2 mps 690 mmHg 33%
    14:00 +29°C° 0 mm 2 mps 689 mmHg 31%
    15:00 +30°C° 0 mm 3 mps 689 mmHg 28%
    16:00 +29°C° 0 mm 2 mps 689 mmHg 31%
    17:00 +28°C° 0 mm 2 mps 689 mmHg 34%
    18:00 +27°C° 0 mm 2 mps 689 mmHg 36%
    19:00 +26°C° 0 mm 1 mps 689 mmHg 39%
    20:00 +25°C° 0 mm 1 mps 689 mmHg 42%
    21:00 +25°C° 0 mm 1 mps 689 mmHg 45%
    22:00 +24°C° 0 mm 1 mps 689 mmHg 46%
    23:00 +24°C° 0 mm 1 mps 689 mmHg 46%
    Show more